• In Kazakhstan
  • List of Countries
  • For 7 days
  • Water Temperature
  • Satellite Maps
  • Weather Map
  • News
  • Weather Widgets
  • user-avatar
    Login

    Hourly Weather Lankaran

    Today, 22 October, Sunday

    Time Temperature Precipitation Wind Pressure Humidity
    00:00 +8°C° 0 mm 1 mps 632 mmHg 50%
    01:00 +7°C° 0 mm 2 mps 632 mmHg 46%
    02:00 +7°C° 0 mm 2 mps 632 mmHg 41%
    03:00 +7°C° 0 mm 2 mps 632 mmHg 36%
    04:00 +7°C° 0 mm 2 mps 631 mmHg 33%
    05:00 +7°C° 0 mm 2 mps 631 mmHg 29%
    06:00 +6°C° 0 mm 2 mps 631 mmHg 26%
    07:00 +9°C° 0 mm 2 mps 632 mmHg 25%
    08:00 +12°C° 0 mm 2 mps 633 mmHg 25%
    09:00 +14°C° 0 mm 2 mps 633 mmHg 24%
    10:00 +14°C° 0 mm 3 mps 633 mmHg 25%
    11:00 +16°C° 0 mm 3 mps 633 mmHg 26%
    12:00 +17°C° 0 mm 3 mps 633 mmHg 27%
    13:00 +17°C° 0 mm 4 mps 632 mmHg 27%
    14:00 +17°C° 0 mm 4 mps 632 mmHg 28%
    15:00 +17°C° 0 mm 4 mps 632 mmHg 28%
    16:00 +14°C° 0 mm 3 mps 631 mmHg 31%
    17:00 +13°C° 0 mm 3 mps 631 mmHg 33%
    18:00 +11°C° 0 mm 3 mps 631 mmHg 36%
    19:00 +11°C° 0 mm 3 mps 631 mmHg 32%
    20:00 +11°C° 0 mm 3 mps 631 mmHg 28%
    21:00 +10°C° 0 mm 2 mps 631 mmHg 24%
    22:00 +10°C° 0 mm 2 mps 631 mmHg 22%
    23:00 +10°C° 0 mm 2 mps 631 mmHg 20%

    Tomorrow, 23 October, Monday

    Time Temperature Precipitation Wind Pressure Humidity
    00:00 +10°C° 0 mm 2 mps 631 mmHg 18%
    01:00 +9°C° 0 mm 3 mps 631 mmHg 20%
    02:00 +9°C° 0 mm 3 mps 631 mmHg 22%
    03:00 +8°C° 0 mm 4 mps 631 mmHg 23%
    04:00 +8°C° 0 mm 4 mps 631 mmHg 25%
    05:00 +7°C° 0 mm 4 mps 631 mmHg 27%
    06:00 +7°C° 0 mm 4 mps 632 mmHg 29%
    07:00 +10°C° 0 mm 4 mps 633 mmHg 28%
    08:00 +12°C° 0 mm 4 mps 634 mmHg 26%
    09:00 +14°C° 0 mm 4 mps 635 mmHg 25%
    10:00 +14°C° 0 mm 4 mps 635 mmHg 26%
    11:00 +15°C° 0 mm 4 mps 635 mmHg 27%
    12:00 +15°C° 0 mm 4 mps 635 mmHg 28%
    13:00 +14°C° 0 mm 4 mps 635 mmHg 36%
    14:00 +13°C° 0 mm 4 mps 635 mmHg 43%
    15:00 +12°C° 0 mm 4 mps 635 mmHg 50%
    16:00 +11°C° 0.1 mm 4 mps 635 mmHg 60%
    17:00 +10°C° 0.1 mm 4 mps 635 mmHg 70%
    18:00 +9°C° 0.1 mm 3 mps 635 mmHg 80%
    19:00 +9°C° 0.1 mm 3 mps 635 mmHg 81%
    20:00 +8°C° 0.1 mm 3 mps 636 mmHg 82%
    21:00 +8°C° 0.1 mm 3 mps 636 mmHg 83%
    22:00 +8°C° 0.1 mm 3 mps 636 mmHg 83%
    23:00 +8°C° 0.1 mm 3 mps 636 mmHg 84%

    Day after tomorrow, 24 October, Tuesday

    Time Temperature Precipitation Wind Pressure Humidity
    00:00 +8°C° 0.1 mm 3 mps 636 mmHg 84%
    01:00 +8°C° 0.1 mm 3 mps 636 mmHg 84%
    02:00 +8°C° 0.1 mm 2 mps 635 mmHg 83%
    03:00 +7°C° 0.1 mm 2 mps 635 mmHg 83%
    04:00 +7°C° 0.1 mm 2 mps 635 mmHg 83%
    05:00 +7°C° 0.1 mm 2 mps 635 mmHg 82%
    06:00 +7°C° 0.1 mm 2 mps 635 mmHg 82%
    07:00 +8°C° 0.1 mm 2 mps 636 mmHg 76%
    08:00 +9°C° 0.1 mm 2 mps 636 mmHg 70%
    09:00 +12°C° 0.1 mm 2 mps 637 mmHg 64%
    10:00 +13°C° 0.1 mm 2 mps 637 mmHg 60%
    11:00 +14°C° 0.1 mm 2 mps 637 mmHg 56%
    12:00 +14°C° 0.1 mm 3 mps 637 mmHg 52%
    13:00 +14°C° 0 mm 3 mps 637 mmHg 54%
    14:00 +14°C° 0 mm 3 mps 636 mmHg 55%
    15:00 +14°C° 0 mm 3 mps 636 mmHg 56%
    16:00 +14°C° 0 mm 2 mps 636 mmHg 62%
    17:00 +13°C° 0 mm 2 mps 636 mmHg 68%
    18:00 +12°C° 0 mm 2 mps 636 mmHg 74%
    19:00 +10°C° 0 mm 2 mps 636 mmHg 76%
    20:00 +10°C° 0 mm 2 mps 637 mmHg 77%
    21:00 +10°C° 0 mm 1 mps 637 mmHg 78%
    22:00 +10°C° 0 mm 1 mps 636 mmHg 76%
    23:00 +10°C° 0 mm 1 mps 636 mmHg 73%

    25 October, Wednesday

    Time Temperature Precipitation Wind Pressure Humidity
    00:00 +9°C° 0 mm 1 mps 636 mmHg 71%
    01:00 +9°C° 0 mm 1 mps 636 mmHg 67%
    02:00 +9°C° 0 mm 1 mps 636 mmHg 63%
    03:00 +9°C° 0 mm 1 mps 636 mmHg 59%
    04:00 +9°C° 0 mm 1 mps 636 mmHg 57%
    05:00 +9°C° 0 mm 1 mps 636 mmHg 55%
    06:00 +9°C° 0 mm 1 mps 636 mmHg 53%
    07:00 +10°C° 0 mm 2 mps 637 mmHg 47%
    08:00 +13°C° 0 mm 2 mps 638 mmHg 41%
    09:00 +16°C° 0 mm 2 mps 639 mmHg 36%
    10:00 +17°C° 0 mm 3 mps 639 mmHg 34%
    11:00 +18°C° 0 mm 3 mps 639 mmHg 33%
    12:00 +19°C° 0 mm 3 mps 639 mmHg 32%
    13:00 +19°C° 0 mm 3 mps 638 mmHg 33%
    14:00 +19°C° 0 mm 3 mps 638 mmHg 34%
    15:00 +19°C° 0 mm 3 mps 638 mmHg 35%
    16:00 +17°C° 0 mm 3 mps 637 mmHg 38%
    17:00 +16°C° 0 mm 2 mps 637 mmHg 42%
    18:00 +14°C° 0 mm 2 mps 637 mmHg 45%
    19:00 +14°C° 0 mm 2 mps 637 mmHg 43%
    20:00 +14°C° 0 mm 2 mps 637 mmHg 41%
    21:00 +14°C° 0 mm 2 mps 637 mmHg 40%
    22:00 +13°C° 0 mm 2 mps 636 mmHg 38%
    23:00 +13°C° 0 mm 2 mps 636 mmHg 37%

    26 October, Thursday

    Time Temperature Precipitation Wind Pressure Humidity
    00:00 +13°C° 0 mm 2 mps 636 mmHg 36%
    01:00 +13°C° 0 mm 2 mps 636 mmHg 36%
    02:00 +12°C° 0 mm 3 mps 636 mmHg 35%
    03:00 +12°C° 0 mm 3 mps 635 mmHg 35%
    04:00 +12°C° 0 mm 3 mps 635 mmHg 35%
    05:00 +11°C° 0 mm 3 mps 635 mmHg 35%
    06:00 +11°C° 0 mm 3 mps 635 mmHg 35%
    07:00 +14°C° 0 mm 3 mps 636 mmHg 34%
    08:00 +17°C° 0 mm 4 mps 636 mmHg 33%
    09:00 +19°C° 0 mm 4 mps 637 mmHg 32%
    10:00 +20°C° 0 mm 4 mps 637 mmHg 30%
    11:00 +21°C° 0 mm 5 mps 636 mmHg 28%
    12:00 +22°C° 0 mm 5 mps 636 mmHg 26%
    13:00 +22°C° 0 mm 5 mps 636 mmHg 25%
    14:00 +22°C° 0 mm 4 mps 636 mmHg 25%
    15:00 +22°C° 0 mm 4 mps 636 mmHg 25%
    16:00 +20°C° 0 mm 3 mps 635 mmHg 29%
    17:00 +17°C° 0 mm 2 mps 635 mmHg 34%
    18:00 +15°C° 0 mm 1 mps 635 mmHg 38%
    19:00 +14°C° 0 mm 2 mps 635 mmHg 44%
    20:00 +13°C° 0 mm 2 mps 635 mmHg 51%
    21:00 +11°C° 0 mm 3 mps 635 mmHg 57%
    22:00 +11°C° 0 mm 3 mps 634 mmHg 60%
    23:00 +10°C° 0 mm 3 mps 634 mmHg 64%

    27 October, Friday

    Time Temperature Precipitation Wind Pressure Humidity
    00:00 +10°C° 0 mm 3 mps 634 mmHg 67%
    01:00 +9°C° 0 mm 3 mps 634 mmHg 66%
    02:00 +9°C° 0 mm 2 mps 634 mmHg 64%
    03:00 +9°C° 0 mm 2 mps 633 mmHg 63%
    04:00 +9°C° 0 mm 2 mps 633 mmHg 60%
    05:00 +9°C° 0 mm 2 mps 633 mmHg 58%
    06:00 +8°C° 0 mm 3 mps 634 mmHg 55%
    07:00 +11°C° 0 mm 3 mps 634 mmHg 49%
    08:00 +13°C° 0 mm 4 mps 635 mmHg 43%
    09:00 +15°C° 0 mm 4 mps 636 mmHg 36%
    10:00 +16°C° 0 mm 5 mps 636 mmHg 35%
    11:00 +17°C° 0 mm 5 mps 636 mmHg 34%
    12:00 +19°C° 0 mm 6 mps 636 mmHg 33%
    13:00 +17°C° 0 mm 6 mps 635 mmHg 36%
    14:00 +16°C° 0 mm 6 mps 635 mmHg 39%
    15:00 +16°C° 0 mm 5 mps 635 mmHg 42%
    16:00 +14°C° 0 mm 5 mps 635 mmHg 51%
    17:00 +12°C° 0 mm 4 mps 635 mmHg 60%
    18:00 +11°C° 0 mm 3 mps 634 mmHg 69%
    19:00 +10°C° 0 mm 3 mps 634 mmHg 72%
    20:00 +10°C° 0 mm 3 mps 634 mmHg 74%
    21:00 +9°C° 0 mm 2 mps 634 mmHg 77%
    22:00 +9°C° 0 mm 2 mps 634 mmHg 78%
    23:00 +8°C° 0 mm 2 mps 634 mmHg 78%
    Show more